Regional Weather Roundup
Issued by NWS Sioux Falls, SD

Home | Current Version | Previous Version | Graphics & Text | Print | Product List | Glossary On
Versions: 1 2 3 4 5 6 7 8 9 10 11 12 13 14 15 16 17 18 19 20 21 22 23 24 25 26 27 28 29 30 31 32 33 34 35 36 37 38 39 40 41 42 43 44 45 46 47 48 49 50
000
ASUS43 KFSD 090810
RWRFSD

WEATHER ROUNDUP FOR SE SOUTH DAKOTA/SW MINNESOTA/NW IOWA
NATIONAL WEATHER SERVICE SIOUX FALLS SD
200 AM CST TUE FEB 09 2016

NOTE: "FAIR" INDICATES FEW OR NO CLOUDS BELOW 12,000 FEET WITH NO
SIGNIFICANT WEATHER AND OR OBSTRUCTIONS TO VISIBILITY.


SDZ038>040-050-052>070-090900-
SOUTHEAST SOUTH DAKOTA

CITY           SKY/WX    TMP DP  RH WIND       PRES   REMARKS
BROOKINGS      CLOUDY     7   1  76 N21G30    30.11R WCI -13
CHAMBERLAIN    PTCLDY    22  12  65 N15G22    30.22F WCI   9
HURON          CLEAR     15   9  76 N13       30.22S WCI   1
MADISON        PTSUNNY   10   7  85 N21G31    30.13R WCI  -9
MITCHELL       CLEAR     17  10  74 N16G23    30.23R WCI   2
SIOUX FALLS    MOCLDY    11   4  73 N20G28    30.12S WCI  -7
WINNER         FAIR      25  18  74 N9        30.21F WCI  15
YANKTON        PTCLDY    18   9  68 N25G32    30.17S WCI  -1
$$

MNZ071-072-080-081-089-090-097-098-090900-
SOUTHWEST MINNESOTA

CITY           SKY/WX    TMP DP  RH WIND       PRES   REMARKS
FAIRMONT       CLOUDY     9   0  66 NW21G26   29.99F WCI -11
JACKSON        CLOUDY     9   1  72 N20G35    30.02S HAZE    WCI -11
LUVERNE        CLEAR     10   5  79 N14       30.11R WCI  -5
MARSHALL       LGT SNOW   7   2  80 N24G30    30.12R WCI -14
MONTEVIDEO     PTCLDY     7   1  78 N17       30.15R WCI -12
PIPESTONE      CLEAR      9  -2  61 N18G28    30.08R WCI -10
REDWOOD FALLS  MOCLDY     8   3  80 NW15G22   30.08S WCI  -9
TRACY          CLEAR      8   3  80 N22G29    30.09R WCI -12
WINDOM         LGT SNOW   7   3  85 NW28      30.02S WCI -16
WORTHINGTON    CLOUDY     7   0  72 N23G32    30.05S VSB 1   WCI -14
$$

IAZ001>003-012>014-020>022-031-032-NEZ013-014-SDZ071-090900-
NORTHWEST IOWA

CITY           SKY/WX    TMP DP  RH WIND       PRES   REMARKS
CHEROKEE       PTCLDY     9   4  79 N17G28    30.09S WCI  -9
DENISON        MOCLDY    12   5  73 N20G26    30.06S WCI  -6
ESTHERVILLE    CLOUDY     7   2  80 NW28      30.02F HAZE    WCI -16
LE MARS        CLOUDY    12   7  79 N13G20    30.14S WCI  -3
ORANGE CITY    CLOUDY     9   7  92 N12G18    30.09R WCI  -6
SHELDON        CLOUDY     7   3  85 N24G30    30.06S WCI -15
SIOUX CITY     CLEAR     18   7  62 NW26G32   30.11R WCI  -1
SPENCER        LGT SNOW   8   2  76 N22G32    30.06R VSB 1   WCI -12
STORM LAKE     LGT SNOW   9   5  85 NW24G31   30.05S WCI -12
$$

ABBREVIATIONS USED IN REMARKS
   TC - TEMPERATURE IN CELSIUS
  WCI - WIND CHILL INDEX
   HX - HEAT INDEX
  VSB - VISIBILITY




USA.gov is the U.S. government's official web portal to all federal, state and local government web resources and services.